Information on these data can be found in provided Readme document
Contact Info: Zachary Fasnacht (zachary.fasnacht@ssaihq.com); Nickolay Krotkov (nickolay.a.krotkov@nasa.gov); Lok Lamsal (lok.lamsal@nasa.gov)

FillValue: -999.
ScaleFactor: 1e15
Units: molecules/cm^2

Date(yyyy-mm-dd),City,Country,LonCenter,LatCenter,BoundingCoordinates,Median,Q1,Q3,Mean,Baseline_Median,Baseline_Q1,Baseline_Q3,Baseline_Mean,NumGoodSamples,NumTotalSamples
2015-01-01,Hamburg,Germany,10.0333,53.5501,[9.5333 53.0501 10.5333 54.0501],3.081,0.672,5.393,3.357,3.91,1.093,6.142,3.726,119.0,681.0
2015-01-02,Hamburg,Germany,10.0333,53.5501,[9.5333 53.0501 10.5333 54.0501],3.003,0.672,5.393,3.322,3.595,1.117,5.861,3.57,121.0,679.0
2015-01-03,Hamburg,Germany,10.0333,53.5501,[9.5333 53.0501 10.5333 54.0501],3.493,2.103,5.937,4.322,3.754,1.487,6.068,3.971,97.0,684.0
2015-01-04,Hamburg,Germany,10.0333,53.5501,[9.5333 53.0501 10.5333 54.0501],3.493,2.103,5.937,4.318,3.757,1.541,6.102,3.997,98.0,688.0
2015-01-05,Hamburg,Germany,10.0333,53.5501,[9.5333 53.0501 10.5333 54.0501],4.477,2.936,6.478,5.075,4.0,1.698,6.193,4.155,82.0,683.0
2015-01-06,Hamburg,Germany,10.0333,53.5501,[9.5333 53.0501 10.5333 54.0501],3.094,2.248,4.959,3.612,3.346,1.199,5.19,3.351,52.0,681.0
2015-01-07,Hamburg,Germany,10.0333,53.5501,[9.5333 53.0501 10.5333 54.0501],3.094,2.248,4.959,3.586,2.732,1.028,4.729,3.004,53.0,682.0
2015-01-08,Hamburg,Germany,10.0333,53.5501,[9.5333 53.0501 10.5333 54.0501],3.094,2.248,4.959,3.586,2.732,1.028,4.729,3.004,53.0,686.0
2015-01-09,Hamburg,Germany,10.0333,53.5501,[9.5333 53.0501 10.5333 54.0501],4.359,2.782,7.937,5.301,3.172,1.306,5.435,3.598,75.0,676.0
2015-01-10,Hamburg,Germany,10.0333,53.5501,[9.5333 53.0501 10.5333 54.0501],4.559,2.952,8.532,5.672,3.734,1.507,6.311,4.108,64.0,631.0
2015-01-11,Hamburg,Germany,10.0333,53.5501,[9.5333 53.0501 10.5333 54.0501],4.559,2.952,8.532,5.672,4.056,1.762,6.644,4.395,64.0,631.0
2015-01-12,Hamburg,Germany,10.0333,53.5501,[9.5333 53.0501 10.5333 54.0501],5.937,3.577,9.564,6.764,4.556,2.21,6.971,4.836,50.0,637.0
2015-01-13,Hamburg,Germany,10.0333,53.5501,[9.5333 53.0501 10.5333 54.0501],5.937,3.577,9.564,6.764,4.69,2.243,7.153,5.034,50.0,642.0
2015-01-14,Hamburg,Germany,10.0333,53.5501,[9.5333 53.0501 10.5333 54.0501],5.937,3.577,9.564,6.764,4.663,2.355,7.178,5.093,50.0,637.0
2015-01-15,Hamburg,Germany,10.0333,53.5501,[9.5333 53.0501 10.5333 54.0501],9.427,4.0,10.033,7.742,5.459,3.617,7.851,6.314,27.0,624.0
2015-01-16,Hamburg,Germany,10.0333,53.5501,[9.5333 53.0501 10.5333 54.0501],8.449,4.0,10.033,7.615,5.447,3.644,8.185,6.618,32.0,628.0
2015-01-17,Hamburg,Germany,10.0333,53.5501,[9.5333 53.0501 10.5333 54.0501],8.449,4.11,10.033,7.838,5.437,3.662,8.178,6.653,30.0,628.0
2015-01-18,Hamburg,Germany,10.0333,53.5501,[9.5333 53.0501 10.5333 54.0501],8.449,4.0,10.033,7.775,5.356,3.484,7.847,6.458,32.0,627.0
2015-01-19,Hamburg,Germany,10.0333,53.5501,[9.5333 53.0501 10.5333 54.0501],8.449,4.11,10.033,7.814,5.387,3.492,8.12,6.476,31.0,632.0
2015-01-20,Hamburg,Germany,10.0333,53.5501,[9.5333 53.0501 10.5333 54.0501],5.749,2.651,9.427,6.16,5.719,3.046,8.08,6.228,49.0,636.0
2015-01-21,Hamburg,Germany,10.0333,53.5501,[9.5333 53.0501 10.5333 54.0501],5.749,2.651,9.427,6.16,6.092,3.873,9.052,6.768,49.0,633.0
2015-01-22,Hamburg,Germany,10.0333,53.5501,[9.5333 53.0501 10.5333 54.0501],5.766,2.9,9.427,6.219,6.423,4.781,9.511,7.212,48.0,629.0
2015-01-23,Hamburg,Germany,10.0333,53.5501,[9.5333 53.0501 10.5333 54.0501],5.766,2.9,9.427,6.219,6.369,4.74,9.5,7.156,48.0,626.0
2015-01-24,Hamburg,Germany,10.0333,53.5501,[9.5333 53.0501 10.5333 54.0501],2.9,1.459,6.311,3.815,6.115,4.747,9.23,6.933,25.0,627.0
2015-01-25,Hamburg,Germany,10.0333,53.5501,[9.5333 53.0501 10.5333 54.0501],2.9,1.459,6.311,3.815,6.122,4.741,9.264,6.947,25.0,671.0
2015-01-26,Hamburg,Germany,10.0333,53.5501,[9.5333 53.0501 10.5333 54.0501],2.9,1.459,6.311,3.815,6.225,4.595,9.2,6.966,25.0,682.0
2015-01-27,Hamburg,Germany,10.0333,53.5501,[9.5333 53.0501 10.5333 54.0501],2.9,1.459,6.158,3.803,5.905,3.718,9.134,6.681,26.0,681.0
2015-01-28,Hamburg,Germany,10.0333,53.5501,[9.5333 53.0501 10.5333 54.0501],2.9,1.459,6.158,3.803,6.109,3.845,9.409,6.897,26.0,686.0
2015-01-29,Hamburg,Germany,10.0333,53.5501,[9.5333 53.0501 10.5333 54.0501],2.9,1.459,6.158,3.803,6.457,3.96,9.326,7.344,26.0,690.0
2015-01-30,Hamburg,Germany,10.0333,53.5501,[9.5333 53.0501 10.5333 54.0501],2.9,1.459,6.158,3.803,5.949,3.854,8.923,6.237,26.0,685.0
2015-01-31,Hamburg,Germany,10.0333,53.5501,[9.5333 53.0501 10.5333 54.0501],2.9,0.958,5.766,3.333,6.158,4.248,8.851,6.501,21.0,674.0
2015-02-01,Hamburg,Germany,10.0333,53.5501,[9.5333 53.0501 10.5333 54.0501],2.87,1.963,5.072,3.206,5.917,4.148,8.463,6.218,64.0,681.0
2015-02-02,Hamburg,Germany,10.0333,53.5501,[9.5333 53.0501 10.5333 54.0501],2.866,1.963,5.072,3.192,6.616,4.578,9.803,7.102,62.0,683.0
2015-02-03,Hamburg,Germany,10.0333,53.5501,[9.5333 53.0501 10.5333 54.0501],2.866,1.963,5.072,3.192,6.616,4.578,9.803,7.102,62.0,681.0
2015-02-04,Hamburg,Germany,10.0333,53.5501,[9.5333 53.0501 10.5333 54.0501],2.87,1.963,4.496,3.146,7.332,4.489,9.988,7.417,44.0,686.0
2015-02-05,Hamburg,Germany,10.0333,53.5501,[9.5333 53.0501 10.5333 54.0501],2.87,1.963,4.496,3.146,5.918,4.248,9.166,6.717,44.0,691.0
2015-02-06,Hamburg,Germany,10.0333,53.5501,[9.5333 53.0501 10.5333 54.0501],2.87,1.963,4.496,3.146,6.371,4.742,8.457,6.805,44.0,686.0
2015-02-07,Hamburg,Germany,10.0333,53.5501,[9.5333 53.0501 10.5333 54.0501],3.191,2.013,5.174,3.734,6.38,4.352,8.53,6.683,55.0,682.0
2015-02-08,Hamburg,Germany,10.0333,53.5501,[9.5333 53.0501 10.5333 54.0501],3.191,2.013,5.174,3.734,6.573,4.309,9.959,7.25,55.0,680.0
2015-02-09,Hamburg,Germany,10.0333,53.5501,[9.5333 53.0501 10.5333 54.0501],3.191,2.013,5.174,3.734,6.845,4.272,10.289,7.509,55.0,681.0
2015-02-10,Hamburg,Germany,10.0333,53.5501,[9.5333 53.0501 10.5333 54.0501],3.469,2.21,5.384,4.211,6.769,4.203,10.125,7.464,58.0,666.0
2015-02-11,Hamburg,Germany,10.0333,53.5501,[9.5333 53.0501 10.5333 54.0501],3.469,2.21,5.384,4.219,6.514,4.282,10.068,7.365,57.0,620.0
2015-02-12,Hamburg,Germany,10.0333,53.5501,[9.5333 53.0501 10.5333 54.0501],5.734,3.096,11.888,7.485,6.739,4.296,10.824,7.708,93.0,618.0
2015-02-13,Hamburg,Germany,10.0333,53.5501,[9.5333 53.0501 10.5333 54.0501],5.734,3.096,11.888,7.485,6.94,4.392,10.968,7.838,93.0,622.0
2015-02-14,Hamburg,Germany,10.0333,53.5501,[9.5333 53.0501 10.5333 54.0501],5.734,3.096,11.888,7.485,7.177,4.622,11.068,7.991,93.0,625.0
2015-02-15,Hamburg,Germany,10.0333,53.5501,[9.5333 53.0501 10.5333 54.0501],5.734,3.096,11.888,7.485,7.097,4.285,11.118,7.83,93.0,621.0
2015-02-16,Hamburg,Germany,10.0333,53.5501,[9.5333 53.0501 10.5333 54.0501],11.801,9.845,13.053,11.095,7.549,4.631,10.699,7.932,50.0,608.0
2015-02-17,Hamburg,Germany,10.0333,53.5501,[9.5333 53.0501 10.5333 54.0501],11.801,9.845,13.053,11.095,6.298,4.092,9.969,7.051,50.0,612.0
2015-02-18,Hamburg,Germany,10.0333,53.5501,[9.5333 53.0501 10.5333 54.0501],11.801,9.845,13.053,11.095,6.337,4.294,10.027,7.07,50.0,614.0
2015-02-19,Hamburg,Germany,10.0333,53.5501,[9.5333 53.0501 10.5333 54.0501],10.626,6.964,12.434,9.711,6.7,4.334,10.048,7.153,71.0,615.0
2015-02-20,Hamburg,Germany,10.0333,53.5501,[9.5333 53.0501 10.5333 54.0501],10.626,6.964,12.434,9.711,6.769,4.667,10.039,7.301,71.0,621.0
2015-02-21,Hamburg,Germany,10.0333,53.5501,[9.5333 53.0501 10.5333 54.0501],9.477,6.504,11.888,9.144,6.725,4.464,9.822,7.153,109.0,627.0
2015-02-22,Hamburg,Germany,10.0333,53.5501,[9.5333 53.0501 10.5333 54.0501],9.845,6.512,12.004,9.438,7.007,4.192,9.368,6.947,98.0,625.0
2015-02-23,Hamburg,Germany,10.0333,53.5501,[9.5333 53.0501 10.5333 54.0501],9.845,6.512,12.004,9.438,6.078,4.016,8.795,6.492,98.0,622.0
2015-02-24,Hamburg,Germany,10.0333,53.5501,[9.5333 53.0501 10.5333 54.0501],9.845,6.512,12.004,9.441,5.923,3.852,8.217,6.178,99.0,622.0
2015-02-25,Hamburg,Germany,10.0333,53.5501,[9.5333 53.0501 10.5333 54.0501],9.763,6.512,11.888,9.318,5.966,3.936,8.055,6.174,96.0,625.0
2015-02-26,Hamburg,Germany,10.0333,53.5501,[9.5333 53.0501 10.5333 54.0501],9.763,6.512,11.888,9.318,6.143,4.075,8.093,6.254,96.0,668.0
2015-02-27,Hamburg,Germany,10.0333,53.5501,[9.5333 53.0501 10.5333 54.0501],7.079,5.72,9.568,7.563,5.356,3.849,7.484,5.74,60.0,681.0
2015-02-28,Hamburg,Germany,10.0333,53.5501,[9.5333 53.0501 10.5333 54.0501],7.079,5.669,9.477,7.546,5.207,3.841,7.299,5.501,67.0,682.0
2015-03-01,Hamburg,Germany,10.0333,53.5501,[9.5333 53.0501 10.5333 54.0501],6.654,4.688,9.118,7.123,5.229,3.706,7.277,5.459,75.0,689.0
2015-03-02,Hamburg,Germany,10.0333,53.5501,[9.5333 53.0501 10.5333 54.0501],6.737,4.688,8.764,6.979,5.308,3.881,7.31,5.617,86.0,693.0
2015-03-03,Hamburg,Germany,10.0333,53.5501,[9.5333 53.0501 10.5333 54.0501],6.737,4.688,8.764,6.979,5.198,3.614,8.022,5.979,86.0,688.0
2015-03-04,Hamburg,Germany,10.0333,53.5501,[9.5333 53.0501 10.5333 54.0501],6.182,3.65,8.255,5.919,5.355,3.642,8.141,5.993,97.0,676.0
2015-03-05,Hamburg,Germany,10.0333,53.5501,[9.5333 53.0501 10.5333 54.0501],4.836,2.521,7.394,5.437,4.763,3.095,7.715,5.653,139.0,682.0
2015-03-06,Hamburg,Germany,10.0333,53.5501,[9.5333 53.0501 10.5333 54.0501],4.611,1.916,7.302,5.237,4.389,2.554,7.598,5.336,118.0,683.0
2015-03-07,Hamburg,Germany,10.0333,53.5501,[9.5333 53.0501 10.5333 54.0501],4.611,1.916,7.302,5.237,4.082,2.273,7.518,5.196,118.0,680.0
2015-03-08,Hamburg,Germany,10.0333,53.5501,[9.5333 53.0501 10.5333 54.0501],3.272,1.48,5.815,4.085,4.447,2.315,7.247,5.053,80.0,685.0
2015-03-09,Hamburg,Germany,10.0333,53.5501,[9.5333 53.0501 10.5333 54.0501],3.812,1.628,6.737,4.564,4.922,3.291,7.472,5.504,99.0,690.0
2015-03-10,Hamburg,Germany,10.0333,53.5501,[9.5333 53.0501 10.5333 54.0501],3.812,1.628,6.737,4.564,4.049,2.071,7.191,4.96,99.0,685.0
2015-03-11,Hamburg,Germany,10.0333,53.5501,[9.5333 53.0501 10.5333 54.0501],4.529,1.916,7.728,5.247,4.895,2.19,7.546,5.112,113.0,679.0
2015-03-12,Hamburg,Germany,10.0333,53.5501,[9.5333 53.0501 10.5333 54.0501],5.631,3.037,8.386,5.829,5.145,2.626,7.48,5.205,147.0,678.0
2015-03-13,Hamburg,Germany,10.0333,53.5501,[9.5333 53.0501 10.5333 54.0501],5.631,3.037,8.386,5.829,4.865,2.373,7.218,4.981,147.0,678.0
2015-03-14,Hamburg,Germany,10.0333,53.5501,[9.5333 53.0501 10.5333 54.0501],5.631,3.037,8.386,5.829,4.853,2.374,7.143,4.904,147.0,667.0
2015-03-15,Hamburg,Germany,10.0333,53.5501,[9.5333 53.0501 10.5333 54.0501],5.506,2.606,8.43,5.771,4.783,2.199,7.124,4.86,140.0,620.0
2015-03-16,Hamburg,Germany,10.0333,53.5501,[9.5333 53.0501 10.5333 54.0501],6.784,3.289,8.846,6.565,5.367,2.513,7.364,5.244,169.0,620.0
2015-03-17,Hamburg,Germany,10.0333,53.5501,[9.5333 53.0501 10.5333 54.0501],6.784,3.289,8.992,6.59,5.285,2.632,7.481,5.271,158.0,626.0
2015-03-18,Hamburg,Germany,10.0333,53.5501,[9.5333 53.0501 10.5333 54.0501],6.842,3.368,9.093,6.66,4.73,2.619,6.944,4.882,163.0,668.0
2015-03-19,Hamburg,Germany,10.0333,53.5501,[9.5333 53.0501 10.5333 54.0501],7.728,4.517,9.519,7.344,4.974,3.042,7.007,5.104,152.0,686.0
2015-03-20,Hamburg,Germany,10.0333,53.5501,[9.5333 53.0501 10.5333 54.0501],8.377,6.664,10.602,8.405,4.861,3.616,6.837,5.21,110.0,688.0
2015-03-21,Hamburg,Germany,10.0333,53.5501,[9.5333 53.0501 10.5333 54.0501],8.288,6.21,10.087,7.987,5.365,3.81,8.129,6.001,125.0,691.0
2015-03-22,Hamburg,Germany,10.0333,53.5501,[9.5333 53.0501 10.5333 54.0501],8.288,6.21,10.087,7.987,5.424,3.735,7.953,5.993,125.0,691.0
2015-03-23,Hamburg,Germany,10.0333,53.5501,[9.5333 53.0501 10.5333 54.0501],8.288,6.024,9.923,7.928,5.81,3.75,8.881,6.552,127.0,691.0
2015-03-24,Hamburg,Germany,10.0333,53.5501,[9.5333 53.0501 10.5333 54.0501],8.377,6.462,10.602,8.128,5.348,3.414,8.954,6.272,108.0,696.0
2015-03-25,Hamburg,Germany,10.0333,53.5501,[9.5333 53.0501 10.5333 54.0501],7.728,3.574,9.763,7.021,5.696,3.025,8.799,6.307,131.0,700.0
2015-03-26,Hamburg,Germany,10.0333,53.5501,[9.5333 53.0501 10.5333 54.0501],7.306,2.79,8.846,6.671,5.424,2.836,8.254,6.113,116.0,699.0
2015-03-27,Hamburg,Germany,10.0333,53.5501,[9.5333 53.0501 10.5333 54.0501],6.462,2.115,9.448,6.121,5.045,2.876,8.55,6.049,82.0,693.0
2015-03-28,Hamburg,Germany,10.0333,53.5501,[9.5333 53.0501 10.5333 54.0501],6.414,2.115,9.448,6.048,5.217,2.972,8.76,6.173,93.0,698.0
2015-03-29,Hamburg,Germany,10.0333,53.5501,[9.5333 53.0501 10.5333 54.0501],4.593,2.055,8.797,5.45,4.923,2.925,8.607,6.051,106.0,696.0
2015-03-30,Hamburg,Germany,10.0333,53.5501,[9.5333 53.0501 10.5333 54.0501],3.49,2.04,7.041,4.672,4.619,2.923,8.043,5.766,145.0,748.0
2015-03-31,Hamburg,Germany,10.0333,53.5501,[9.5333 53.0501 10.5333 54.0501],2.604,1.452,3.677,3.036,4.462,2.775,7.199,5.362,108.0,758.0
2015-04-01,Hamburg,Germany,10.0333,53.5501,[9.5333 53.0501 10.5333 54.0501],2.687,1.381,3.736,2.952,4.241,2.67,6.644,5.137,137.0,755.0
2015-04-02,Hamburg,Germany,10.0333,53.5501,[9.5333 53.0501 10.5333 54.0501],2.604,1.362,3.65,2.732,4.136,2.462,6.41,5.111,132.0,722.0
2015-04-03,Hamburg,Germany,10.0333,53.5501,[9.5333 53.0501 10.5333 54.0501],2.842,1.621,4.357,3.237,4.094,2.526,6.803,5.187,147.0,705.0
2015-04-04,Hamburg,Germany,10.0333,53.5501,[9.5333 53.0501 10.5333 54.0501],2.842,1.621,4.357,3.237,4.12,2.558,6.846,5.166,147.0,685.0
2015-04-05,Hamburg,Germany,10.0333,53.5501,[9.5333 53.0501 10.5333 54.0501],2.856,1.696,4.593,3.342,3.988,2.485,6.114,4.682,140.0,687.0
2015-04-06,Hamburg,Germany,10.0333,53.5501,[9.5333 53.0501 10.5333 54.0501],2.856,1.647,4.368,3.29,3.965,2.476,5.907,4.626,152.0,693.0
2015-04-07,Hamburg,Germany,10.0333,53.5501,[9.5333 53.0501 10.5333 54.0501],2.856,1.621,4.368,3.299,3.709,2.373,5.451,4.145,150.0,723.0
2015-04-08,Hamburg,Germany,10.0333,53.5501,[9.5333 53.0501 10.5333 54.0501],3.574,2.057,5.62,3.87,4.033,2.718,5.771,4.419,190.0,755.0
2015-04-09,Hamburg,Germany,10.0333,53.5501,[9.5333 53.0501 10.5333 54.0501],3.862,2.47,5.934,4.123,4.144,2.805,5.909,4.51,168.0,782.0
2015-04-10,Hamburg,Germany,10.0333,53.5501,[9.5333 53.0501 10.5333 54.0501],3.881,2.47,5.934,4.101,4.054,2.732,5.683,4.386,178.0,788.0
2015-04-11,Hamburg,Germany,10.0333,53.5501,[9.5333 53.0501 10.5333 54.0501],3.881,2.47,5.934,4.101,4.006,2.649,5.726,4.358,178.0,786.0
2015-04-12,Hamburg,Germany,10.0333,53.5501,[9.5333 53.0501 10.5333 54.0501],3.913,2.427,5.826,4.06,3.929,2.63,5.593,4.288,182.0,777.0
2015-04-13,Hamburg,Germany,10.0333,53.5501,[9.5333 53.0501 10.5333 54.0501],3.902,2.544,5.682,4.103,4.017,2.663,6.013,4.485,203.0,780.0
2015-04-14,Hamburg,Germany,10.0333,53.5501,[9.5333 53.0501 10.5333 54.0501],3.989,2.137,5.934,3.973,3.896,2.535,5.744,4.304,176.0,770.0
2015-04-15,Hamburg,Germany,10.0333,53.5501,[9.5333 53.0501 10.5333 54.0501],3.743,2.164,5.62,3.859,3.937,2.566,5.838,4.358,209.0,761.0
2015-04-16,Hamburg,Germany,10.0333,53.5501,[9.5333 53.0501 10.5333 54.0501],3.927,2.404,5.934,4.042,3.899,2.53,6.029,4.392,180.0,716.0
2015-04-17,Hamburg,Germany,10.0333,53.5501,[9.5333 53.0501 10.5333 54.0501],4.406,2.544,6.889,4.893,4.164,2.722,6.023,4.547,216.0,774.0
2015-04-18,Hamburg,Germany,10.0333,53.5501,[9.5333 53.0501 10.5333 54.0501],4.174,2.475,6.511,4.723,4.049,2.66,5.81,4.381,201.0,779.0
2015-04-19,Hamburg,Germany,10.0333,53.5501,[9.5333 53.0501 10.5333 54.0501],4.174,2.475,6.511,4.723,4.073,2.682,5.782,4.392,201.0,821.0
2015-04-20,Hamburg,Germany,10.0333,53.5501,[9.5333 53.0501 10.5333 54.0501],4.097,2.427,6.537,4.727,4.069,2.676,5.82,4.412,193.0,828.0
2015-04-21,Hamburg,Germany,10.0333,53.5501,[9.5333 53.0501 10.5333 54.0501],4.69,2.57,6.889,4.974,4.216,2.714,5.926,4.493,193.0,830.0
2015-04-22,Hamburg,Germany,10.0333,53.5501,[9.5333 53.0501 10.5333 54.0501],4.7,2.628,6.799,5.032,4.222,2.736,5.881,4.512,216.0,807.0
2015-04-23,Hamburg,Germany,10.0333,53.5501,[9.5333 53.0501 10.5333 54.0501],4.026,2.427,6.795,4.793,3.935,2.659,5.73,4.355,176.0,775.0
2015-04-24,Hamburg,Germany,10.0333,53.5501,[9.5333 53.0501 10.5333 54.0501],4.05,2.427,6.795,4.799,3.948,2.585,5.753,4.339,175.0,751.0
2015-04-25,Hamburg,Germany,10.0333,53.5501,[9.5333 53.0501 10.5333 54.0501],4.077,2.427,6.799,4.845,4.036,2.649,5.859,4.457,165.0,756.0
2015-04-26,Hamburg,Germany,10.0333,53.5501,[9.5333 53.0501 10.5333 54.0501],3.927,2.404,6.795,4.766,4.031,2.638,5.948,4.513,183.0,763.0
2015-04-27,Hamburg,Germany,10.0333,53.5501,[9.5333 53.0501 10.5333 54.0501],3.927,2.475,6.998,4.844,4.084,2.711,6.069,4.606,168.0,761.0
2015-04-28,Hamburg,Germany,10.0333,53.5501,[9.5333 53.0501 10.5333 54.0501],4.466,2.404,7.442,5.123,4.041,2.669,5.849,4.446,134.0,764.0
2015-04-29,Hamburg,Germany,10.0333,53.5501,[9.5333 53.0501 10.5333 54.0501],5.338,3.433,8.344,6.057,4.266,2.799,6.096,4.602,145.0,765.0
2015-04-30,Hamburg,Germany,10.0333,53.5501,[9.5333 53.0501 10.5333 54.0501],6.714,4.675,9.735,6.974,4.022,2.595,5.809,4.331,115.0,777.0
2015-05-01,Hamburg,Germany,10.0333,53.5501,[9.5333 53.0501 10.5333 54.0501],6.665,4.636,9.735,6.939,3.913,2.642,5.591,4.232,120.0,817.0
2015-05-02,Hamburg,Germany,10.0333,53.5501,[9.5333 53.0501 10.5333 54.0501],5.229,3.459,7.071,5.528,3.428,2.335,4.952,3.851,84.0,781.0
2015-05-03,Hamburg,Germany,10.0333,53.5501,[9.5333 53.0501 10.5333 54.0501],3.476,2.443,6.531,4.37,3.494,2.321,5.387,3.885,119.0,779.0
2015-05-04,Hamburg,Germany,10.0333,53.5501,[9.5333 53.0501 10.5333 54.0501],3.476,2.443,6.531,4.37,3.481,2.374,5.232,3.807,119.0,759.0
2015-05-05,Hamburg,Germany,10.0333,53.5501,[9.5333 53.0501 10.5333 54.0501],3.476,2.443,6.531,4.37,3.436,2.352,5.061,3.739,119.0,739.0
2015-05-06,Hamburg,Germany,10.0333,53.5501,[9.5333 53.0501 10.5333 54.0501],3.259,1.855,5.939,3.906,3.229,2.08,4.77,3.512,107.0,735.0
2015-05-07,Hamburg,Germany,10.0333,53.5501,[9.5333 53.0501 10.5333 54.0501],3.01,1.669,5.024,3.523,3.167,1.998,4.596,3.366,84.0,749.0
2015-05-08,Hamburg,Germany,10.0333,53.5501,[9.5333 53.0501 10.5333 54.0501],3.01,1.855,4.378,3.348,3.151,2.043,4.505,3.323,125.0,756.0
2015-05-09,Hamburg,Germany,10.0333,53.5501,[9.5333 53.0501 10.5333 54.0501],3.01,1.855,4.378,3.348,3.19,2.07,4.538,3.343,125.0,792.0
2015-05-10,Hamburg,Germany,10.0333,53.5501,[9.5333 53.0501 10.5333 54.0501],2.921,1.668,4.167,3.229,3.071,1.915,4.33,3.219,134.0,818.0
2015-05-11,Hamburg,Germany,10.0333,53.5501,[9.5333 53.0501 10.5333 54.0501],2.753,1.614,3.724,3.096,3.07,1.911,4.318,3.163,116.0,840.0
2015-05-12,Hamburg,Germany,10.0333,53.5501,[9.5333 53.0501 10.5333 54.0501],2.921,1.671,4.401,3.682,3.001,1.888,4.29,3.153,128.0,859.0
2015-05-13,Hamburg,Germany,10.0333,53.5501,[9.5333 53.0501 10.5333 54.0501],2.921,1.671,4.401,3.682,2.974,1.891,4.231,3.178,128.0,867.0
2015-05-14,Hamburg,Germany,10.0333,53.5501,[9.5333 53.0501 10.5333 54.0501],2.709,1.614,3.724,3.34,3.052,1.965,4.353,3.237,105.0,893.0
2015-05-15,Hamburg,Germany,10.0333,53.5501,[9.5333 53.0501 10.5333 54.0501],2.626,1.614,4.378,3.473,3.176,2.087,4.687,3.435,115.0,904.0
2015-05-16,Hamburg,Germany,10.0333,53.5501,[9.5333 53.0501 10.5333 54.0501],2.51,1.614,3.724,3.259,3.266,2.124,4.648,3.461,114.0,945.0
2015-05-17,Hamburg,Germany,10.0333,53.5501,[9.5333 53.0501 10.5333 54.0501],2.562,1.725,3.593,3.129,3.328,2.081,4.585,3.449,148.0,948.0
2015-05-18,Hamburg,Germany,10.0333,53.5501,[9.5333 53.0501 10.5333 54.0501],2.575,1.762,4.167,3.451,3.14,2.013,4.483,3.33,113.0,903.0
2015-05-19,Hamburg,Germany,10.0333,53.5501,[9.5333 53.0501 10.5333 54.0501],2.575,1.762,4.378,3.533,3.014,2.014,4.522,3.31,114.0,914.0
2015-05-20,Hamburg,Germany,10.0333,53.5501,[9.5333 53.0501 10.5333 54.0501],2.575,1.762,4.378,3.533,2.919,1.742,4.535,3.225,114.0,918.0
2015-05-21,Hamburg,Germany,10.0333,53.5501,[9.5333 53.0501 10.5333 54.0501],2.575,1.762,4.378,3.533,3.158,1.847,4.669,3.327,114.0,952.0
2015-05-22,Hamburg,Germany,10.0333,53.5501,[9.5333 53.0501 10.5333 54.0501],2.575,1.762,4.378,3.533,3.272,2.032,4.929,3.547,114.0,944.0
2015-05-23,Hamburg,Germany,10.0333,53.5501,[9.5333 53.0501 10.5333 54.0501],2.562,1.762,4.627,3.795,3.415,2.119,4.987,3.658,73.0,981.0
2015-05-24,Hamburg,Germany,10.0333,53.5501,[9.5333 53.0501 10.5333 54.0501],2.562,1.762,4.627,3.795,3.373,2.145,4.943,3.613,73.0,979.0
2015-05-25,Hamburg,Germany,10.0333,53.5501,[9.5333 53.0501 10.5333 54.0501],2.562,1.861,6.246,4.065,3.369,2.134,5.057,3.608,64.0,1012.0
2015-05-26,Hamburg,Germany,10.0333,53.5501,[9.5333 53.0501 10.5333 54.0501],2.562,1.861,6.246,4.065,3.202,2.003,4.864,3.437,64.0,1047.0
2015-05-27,Hamburg,Germany,10.0333,53.5501,[9.5333 53.0501 10.5333 54.0501],2.441,1.861,3.024,3.094,3.244,2.054,4.658,3.403,52.0,1059.0
2015-05-28,Hamburg,Germany,10.0333,53.5501,[9.5333 53.0501 10.5333 54.0501],2.603,1.946,3.68,3.373,3.056,1.935,4.484,3.293,91.0,1099.0
2015-05-29,Hamburg,Germany,10.0333,53.5501,[9.5333 53.0501 10.5333 54.0501],2.603,1.946,3.68,3.373,2.955,1.837,4.337,3.169,91.0,1091.0
2015-05-30,Hamburg,Germany,10.0333,53.5501,[9.5333 53.0501 10.5333 54.0501],2.603,1.946,3.305,3.106,2.891,1.698,4.105,3.02,85.0,1127.0
2015-05-31,Hamburg,Germany,10.0333,53.5501,[9.5333 53.0501 10.5333 54.0501],2.441,1.361,3.28,2.657,2.802,1.608,3.99,2.89,109.0,1115.0
2015-06-01,Hamburg,Germany,10.0333,53.5501,[9.5333 53.0501 10.5333 54.0501],2.052,0.71,3.484,2.525,2.728,1.454,4.057,2.874,77.0,1156.0
2015-06-02,Hamburg,Germany,10.0333,53.5501,[9.5333 53.0501 10.5333 54.0501],2.052,0.71,3.484,2.525,2.737,1.448,4.118,2.915,77.0,1231.0
2015-06-03,Hamburg,Germany,10.0333,53.5501,[9.5333 53.0501 10.5333 54.0501],2.347,1.07,3.581,2.648,2.817,1.405,4.205,2.93,93.0,1275.0
2015-06-04,Hamburg,Germany,10.0333,53.5501,[9.5333 53.0501 10.5333 54.0501],2.387,1.393,4.094,2.85,2.662,1.196,4.168,2.815,131.0,1334.0
2015-06-05,Hamburg,Germany,10.0333,53.5501,[9.5333 53.0501 10.5333 54.0501],2.387,1.357,3.903,2.779,2.625,1.194,4.081,2.805,138.0,1317.0
2015-06-06,Hamburg,Germany,10.0333,53.5501,[9.5333 53.0501 10.5333 54.0501],2.387,1.357,3.903,2.779,2.384,1.172,3.825,2.576,138.0,1333.0
2015-06-07,Hamburg,Germany,10.0333,53.5501,[9.5333 53.0501 10.5333 54.0501],2.387,1.357,3.903,2.779,2.161,1.057,3.574,2.351,138.0,1302.0
2015-06-08,Hamburg,Germany,10.0333,53.5501,[9.5333 53.0501 10.5333 54.0501],2.437,1.393,3.937,2.811,1.966,0.932,3.41,2.211,143.0,1289.0
2015-06-09,Hamburg,Germany,10.0333,53.5501,[9.5333 53.0501 10.5333 54.0501],2.437,1.393,3.903,2.779,1.86,0.894,3.137,2.08,153.0,1235.0
2015-06-10,Hamburg,Germany,10.0333,53.5501,[9.5333 53.0501 10.5333 54.0501],2.437,1.393,3.903,2.779,1.85,0.873,3.208,2.091,153.0,1232.0
2015-06-11,Hamburg,Germany,10.0333,53.5501,[9.5333 53.0501 10.5333 54.0501],2.437,1.393,3.903,2.779,1.836,0.862,3.192,2.093,153.0,1269.0
2015-06-12,Hamburg,Germany,10.0333,53.5501,[9.5333 53.0501 10.5333 54.0501],2.182,1.07,3.525,2.463,1.855,0.709,3.197,2.058,114.0,1236.0
2015-06-13,Hamburg,Germany,10.0333,53.5501,[9.5333 53.0501 10.5333 54.0501],2.182,1.07,3.525,2.463,1.827,0.59,3.006,1.958,114.0,1272.0
2015-06-14,Hamburg,Germany,10.0333,53.5501,[9.5333 53.0501 10.5333 54.0501],2.24,1.07,3.631,2.504,1.901,0.621,3.11,2.014,107.0,1224.0
2015-06-15,Hamburg,Germany,10.0333,53.5501,[9.5333 53.0501 10.5333 54.0501],2.653,1.653,3.964,3.064,1.872,0.796,3.2,2.124,84.0,1260.0
2015-06-16,Hamburg,Germany,10.0333,53.5501,[9.5333 53.0501 10.5333 54.0501],2.681,1.857,4.266,3.233,1.818,0.899,3.216,2.071,85.0,1217.0
2015-06-17,Hamburg,Germany,10.0333,53.5501,[9.5333 53.0501 10.5333 54.0501],2.681,1.857,4.266,3.233,1.814,0.85,3.196,2.05,85.0,1253.0
2015-06-18,Hamburg,Germany,10.0333,53.5501,[9.5333 53.0501 10.5333 54.0501],2.84,1.857,4.354,3.253,1.81,0.794,3.188,1.999,75.0,1215.0
2015-06-19,Hamburg,Germany,10.0333,53.5501,[9.5333 53.0501 10.5333 54.0501],2.681,1.653,3.964,3.052,1.921,0.917,3.233,2.092,37.0,1110.0
2015-06-20,Hamburg,Germany,10.0333,53.5501,[9.5333 53.0501 10.5333 54.0501],2.829,2.273,5.365,3.645,1.928,0.994,3.363,2.217,32.0,1115.0
2015-06-21,Hamburg,Germany,10.0333,53.5501,[9.5333 53.0501 10.5333 54.0501],2.808,2.022,5.157,3.303,1.95,0.978,3.295,2.226,35.0,1085.0
2015-06-22,Hamburg,Germany,10.0333,53.5501,[9.5333 53.0501 10.5333 54.0501],3.656,2.402,5.104,3.691,2.144,1.187,3.423,2.392,51.0,1122.0
2015-06-23,Hamburg,Germany,10.0333,53.5501,[9.5333 53.0501 10.5333 54.0501],3.594,2.273,5.104,3.66,2.176,1.227,3.45,2.388,46.0,1115.0